| time (UTC) | temp F | wind direction | speed MPH | gust MPH | rain 1hr in | rain 24hr in | rain mn in | humidity % | barometer mb |
| 20260506023102 | 82 | 141 | 6.0 | 14.0 | 0.00 | 0.00 | 0.00 | 80 | 1006.3 |
| 20260506023008 | 82 | 124 | 6.0 | 14.0 | 0.00 | 0.00 | 0.00 | 80 | 1008.6 |
| 20260506021544 | 82 | 126 | 5.0 | 10.0 | 0.00 | 0.00 | 0.00 | 78 | 1006.2 |
| 20260506021508 | 82 | 131 | 4.0 | 10.0 | 0.00 | 0.00 | 0.00 | 78 | 1008.5 |
| 20260506020051 | 83 | 127 | 6.0 | 11.0 | 0.00 | 0.00 | 0.00 | 76 | 1006.2 |
| 20260506020007 | 83 | 79 | 6.0 | 11.0 | 0.00 | 0.00 | 0.00 | 77 | 1008.4 |
| 20260506014545 | 83 | 114 | 6.0 | 10.0 | 0.00 | 0.00 | 0.00 | 75 | 1005.7 |
| 20260506014507 | 83 | 138 | 6.0 | 10.0 | 0.00 | 0.00 | 0.00 | 76 | 1007.9 |
| 20260506013052 | 84 | 82 | 4.0 | 9.0 | 0.00 | 0.00 | 0.00 | 75 | 1005.4 |
| 20260506013018 | 84 | 107 | 3.0 | 8.0 | 0.00 | 0.00 | 0.00 | 75 | 1007.7 |
| 20260506011548 | 84 | 104 | 6.0 | 12.0 | 0.00 | 0.00 | 0.00 | 74 | 1005.3 |
| 20260506011520 | 84 | 74 | 5.0 | 12.0 | 0.00 | 0.00 | 0.00 | 74 | 1007.5 |
| 20260506010048 | 85 | 126 | 4.0 | 8.0 | 0.00 | 0.00 | 0.00 | 73 | 1005.0 |
| 20260506010008 | 85 | 113 | 4.0 | 8.0 | 0.00 | 0.00 | 0.00 | 73 | 1007.3 |
| 20260506004543 | 85 | 86 | 2.0 | 6.0 | 0.00 | 0.00 | 0.00 | 72 | 1005.0 |
| 20260506004505 | 85 | 86 | 2.0 | 5.0 | 0.00 | 0.00 | 0.00 | 72 | 1007.1 |
| 20260506003042 | 86 | 113 | 3.0 | 7.0 | 0.00 | 0.00 | 0.00 | 71 | 1004.9 |
| 20260506003003 | 86 | 137 | 3.0 | 7.0 | 0.00 | 0.00 | 0.00 | 71 | 1007.2 |
| 20260506001553 | 86 | 98 | 4.0 | 8.0 | 0.00 | 0.00 | 0.00 | 70 | 1004.9 |
| 20260506001503 | 86 | 121 | 4.0 | 8.0 | 0.00 | 0.00 | 0.00 | 71 | 1007.2 |
| 20260506000057 | 86 | 0 | 0.0 | 2.0 | 0.00 | 0.00 | 0.00 | 71 | 1004.8 |
| 20260506000002 | 86 | 184 | 0.0 | 0.0 | 0.00 | 0.00 | 0.00 | 71 | 1007.0 |
| 20260505234541 | 86 | 180 | 0.0 | 5.0 | 0.00 | 0.00 | 0.00 | 70 | 1004.8 |
| 20260505234503 | 86 | 180 | 0.0 | 5.0 | 0.00 | 0.00 | 0.00 | 71 | 1007.0 |
| 20260505233050 | 86 | 180 | 2.0 | 6.0 | 0.00 | 0.00 | 0.00 | 70 | 1004.8 |
| 20260505233001 | 86 | 180 | 2.0 | 4.0 | 0.00 | 0.00 | 0.00 | 70 | 1007.1 |
| 20260505231546 | 86 | 0 | 0.0 | 8.0 | 0.00 | 0.00 | 0.00 | 70 | 1004.7 |
| 20260505231501 | 86 | 169 | 0.0 | 8.0 | 0.00 | 0.00 | 0.00 | 71 | 1007.1 |
| 20260505230122 | 86 | 180 | 0.0 | 4.0 | 0.00 | 0.00 | 0.00 | 70 | 1007.0 |
| 20260505230110 | 86 | 180 | 0.0 | 5.0 | 0.00 | 0.00 | 0.00 | 69 | 1004.8 |
| 20260505224600 | 87 | 153 | 2.0 | 10.0 | 0.00 | 0.00 | 0.00 | 68 | 1007.1 |
| 20260505224543 | 87 | 119 | 1.0 | 10.0 | 0.00 | 0.00 | 0.00 | 69 | 1004.8 |
| 20260505223059 | 87 | 157 | 4.0 | 9.0 | 0.00 | 0.00 | 0.00 | 70 | 1007.1 |
| 20260505223052 | 87 | 192 | 3.0 | 9.0 | 0.00 | 0.00 | 0.00 | 69 | 1004.7 |
| 20260505221604 | 87 | 138 | 4.0 | 8.0 | 0.00 | 0.00 | 0.00 | 70 | 1007.0 |
| 20260505221556 | 87 | 124 | 2.0 | 9.0 | 0.00 | 0.00 | 0.00 | 70 | 1004.8 |
| 20260505220051 | 87 | 89 | 5.0 | 11.0 | 0.00 | 0.00 | 0.00 | 67 | 1005.0 |
| 20260505214557 | 87 | 178 | 4.0 | 10.0 | 0.00 | 0.00 | 0.00 | 69 | 1007.6 |
| 20260505214547 | 87 | 156 | 3.0 | 10.0 | 0.00 | 0.00 | 0.00 | 68 | 1005.2 |
| 20260505213053 | 87 | 214 | 0.0 | 7.0 | 0.00 | 0.00 | 0.00 | 70 | 1007.7 |
| 20260505213041 | 87 | 0 | 2.0 | 7.0 | 0.00 | 0.00 | 0.00 | 69 | 1005.4 |
| 20260505211600 | 86 | 145 | 4.0 | 9.0 | 0.00 | 0.00 | 0.00 | 69 | 1007.8 |
| 20260505211554 | 87 | 148 | 5.0 | 9.0 | 0.00 | 0.00 | 0.00 | 68 | 1005.6 |
| 20260505210048 | 86 | 218 | 2.0 | 8.0 | 0.00 | 0.00 | 0.00 | 71 | 1008.2 |
| 20260505210042 | 86 | 207 | 2.0 | 10.0 | 0.00 | 0.00 | 0.00 | 70 | 1005.9 |
| 20260505204545 | 86 | 211 | 2.0 | 9.0 | 0.00 | 0.00 | 0.00 | 72 | 1008.5 |
| 20260505204542 | 86 | 166 | 3.0 | 8.0 | 0.00 | 0.00 | 0.00 | 71 | 1006.1 |
| 20260505203046 | 86 | 202 | 3.0 | 9.0 | 0.00 | 0.00 | 0.00 | 70 | 1006.4 |
| 20260505203043 | 86 | 203 | 3.0 | 8.0 | 0.00 | 0.00 | 0.00 | 71 | 1008.7 |
| 20260505201548 | 85 | 161 | 2.0 | 10.0 | 0.00 | 0.00 | 0.00 | 73 | 1006.7 |
| 20260505201539 | 85 | 175 | 1.0 | 10.0 | 0.00 | 0.00 | 0.00 | 73 | 1009.0 |
| 20260505200055 | 84 | 157 | 3.0 | 10.0 | 0.00 | 0.00 | 0.00 | 73 | 1006.7 |
| 20260505200041 | 84 | 157 | 4.0 | 9.0 | 0.00 | 0.00 | 0.00 | 73 | 1009.1 |
| 20260505194544 | 84 | 209 | 2.0 | 8.0 | 0.00 | 0.00 | 0.00 | 74 | 1007.1 |
| 20260505194538 | 84 | 200 | 3.0 | 8.0 | 0.00 | 0.00 | 0.00 | 74 | 1009.3 |
| 20260505193059 | 84 | 202 | 2.0 | 9.0 | 0.00 | 0.00 | 0.00 | 74 | 1007.1 |
| 20260505193036 | 84 | 202 | 2.0 | 7.0 | 0.00 | 0.00 | 0.00 | 74 | 1009.5 |
| 20260505191544 | 83 | 138 | 2.0 | 8.0 | 0.00 | 0.00 | 0.00 | 76 | 1007.2 |
| 20260505191535 | 83 | 138 | 3.0 | 8.0 | 0.00 | 0.00 | 0.00 | 76 | 1009.6 |
| 20260505190045 | 82 | 149 | 4.0 | 9.0 | 0.00 | 0.00 | 0.00 | 76 | 1007.5 |
| 20260505190027 | 82 | 144 | 4.0 | 9.0 | 0.00 | 0.00 | 0.00 | 77 | 1009.9 |
| 20260505184545 | 81 | 223 | 0.0 | 7.0 | 0.00 | 0.00 | 0.00 | 77 | 1007.7 |
| 20260505184527 | 81 | 229 | 1.0 | 4.0 | 0.00 | 0.00 | 0.00 | 78 | 1010.2 |
| 20260505183047 | 81 | 216 | 3.0 | 10.0 | 0.00 | 0.00 | 0.00 | 78 | 1007.8 |
| 20260505183025 | 81 | 216 | 4.0 | 9.0 | 0.00 | 0.00 | 0.00 | 78 | 1010.3 |
| 20260505181546 | 80 | 231 | 2.0 | 10.0 | 0.00 | 0.00 | 0.00 | 80 | 1008.1 |
| 20260505181523 | 80 | 240 | 2.0 | 10.0 | 0.00 | 0.00 | 0.00 | 80 | 1010.5 |
| 20260505180045 | 79 | 229 | 3.0 | 8.0 | 0.00 | 0.00 | 0.00 | 80 | 1007.8 |
| 20260505180017 | 79 | 219 | 3.0 | 8.0 | 0.00 | 0.00 | 0.00 | 81 | 1010.5 |
| 20260505174542 | 78 | 162 | 1.0 | 9.0 | 0.00 | 0.00 | 0.00 | 83 | 1008.3 |
| 20260505174514 | 78 | 181 | 1.0 | 9.0 | 0.00 | 0.00 | 0.00 | 83 | 1010.8 |
| 20260505173044 | 78 | 157 | 3.0 | 8.0 | 0.00 | 0.00 | 0.00 | 83 | 1008.4 |
| 20260505173013 | 77 | 227 | 3.0 | 8.0 | 0.00 | 0.00 | 0.00 | 84 | 1010.8 |
| 20260505171546 | 77 | 192 | 3.0 | 7.0 | 0.00 | 0.00 | 0.00 | 84 | 1008.5 |
| 20260505171509 | 77 | 223 | 3.0 | 9.0 | 0.00 | 0.00 | 0.00 | 85 | 1010.9 |
| 20260505170041 | 76 | 197 | 3.0 | 8.0 | 0.00 | 0.00 | 0.00 | 86 | 1008.4 |
| 20260505170005 | 76 | 229 | 2.0 | 8.0 | 0.00 | 0.00 | 0.00 | 87 | 1010.9 |
| 20260505164544 | 75 | 186 | 3.0 | 10.0 | 0.00 | 0.00 | 0.00 | 87 | 1008.5 |
| 20260505164501 | 75 | 156 | 3.0 | 8.0 | 0.00 | 0.00 | 0.00 | 88 | 1010.9 |
| 20260505163103 | 74 | 186 | 1.0 | 6.0 | 0.00 | 0.00 | 0.00 | 89 | 1010.8 |
| 20260505163046 | 74 | 0 | 2.0 | 6.0 | 0.00 | 0.00 | 0.00 | 89 | 1008.5 |
| 20260505161602 | 73 | 233 | 1.0 | 7.0 | 0.00 | 0.00 | 0.00 | 90 | 1011.0 |
| 20260505161547 | 73 | 0 | 2.0 | 7.0 | 0.00 | 0.00 | 0.00 | 90 | 1008.5 |
| 20260505153047 | 72 | 0 | 1.0 | 6.0 | 0.00 | 0.00 | 0.00 | 91 | 1008.5 |
| 20260505153043 | 72 | 200 | 1.0 | 6.0 | 0.00 | 0.00 | 0.00 | 92 | 1011.0 |
| 20260505151548 | 72 | 236 | 3.0 | 9.0 | 0.00 | 0.00 | 0.00 | 92 | 1008.4 |
| 20260505151539 | 72 | 236 | 3.0 | 9.0 | 0.00 | 0.00 | 0.00 | 92 | 1011.0 |
| 20260505130106 | 69 | 223 | 3.0 | 9.0 | 0.00 | 0.00 | 0.00 | 94 | 1008.2 |
| 20260505124549 | 69 | 219 | 4.0 | 12.0 | 0.00 | 0.00 | 0.00 | 94 | 1008.2 |
| 20260505124528 | 69 | 217 | 2.0 | 12.0 | 0.00 | 0.00 | 0.00 | 94 | 1010.7 |
| 20260505123046 | 69 | 210 | 3.0 | 10.0 | 0.00 | 0.00 | 0.00 | 93 | 1008.0 |
| 20260505123026 | 69 | 211 | 2.0 | 10.0 | 0.00 | 0.00 | 0.00 | 94 | 1010.3 |
| 20260505121546 | 69 | 0 | 3.0 | 11.0 | 0.00 | 0.00 | 0.00 | 93 | 1007.7 |
| 20260505121533 | 69 | 230 | 3.0 | 11.0 | 0.00 | 0.00 | 0.00 | 94 | 1010.2 |
| 20260505120043 | 69 | 181 | 3.0 | 10.0 | 0.00 | 0.00 | 0.00 | 93 | 1007.6 |
| 20260505120026 | 69 | 200 | 4.0 | 10.0 | 0.00 | 0.00 | 0.00 | 94 | 1010.1 |
| 20260505114542 | 69 | 181 | 3.0 | 11.0 | 0.00 | 0.00 | 0.00 | 93 | 1007.5 |
| 20260505114524 | 69 | 217 | 3.0 | 11.0 | 0.00 | 0.00 | 0.00 | 94 | 1010.0 |
| 20260505113042 | 68 | 209 | 2.0 | 7.0 | 0.00 | 0.00 | 0.00 | 94 | 1007.3 |
| 20260505113022 | 68 | 206 | 2.0 | 6.0 | 0.00 | 0.00 | 0.00 | 94 | 1009.8 |
| 20260505111545 | 68 | 125 | 4.0 | 11.0 | 0.00 | 0.00 | 0.00 | 94 | 1007.4 |
| 20260505111522 | 68 | 136 | 4.0 | 11.0 | 0.00 | 0.00 | 0.00 | 94 | 1009.9 |
| 20260505101549 | 68 | 183 | 3.0 | 9.0 | 0.00 | 0.00 | 0.00 | 93 | 1007.4 |
| 20260505101520 | 68 | 173 | 2.0 | 8.0 | 0.00 | 0.00 | 0.00 | 94 | 1009.9 |
| 20260505100040 | 68 | 0 | 2.0 | 9.0 | 0.00 | 0.00 | 0.00 | 93 | 1007.5 |
| 20260505100018 | 68 | 184 | 2.0 | 8.0 | 0.00 | 0.00 | 0.00 | 93 | 1009.9 |
| 20260505094544 | 69 | 221 | 4.0 | 12.0 | 0.00 | 0.00 | 0.00 | 93 | 1007.6 |
| 20260505094514 | 69 | 189 | 4.0 | 10.0 | 0.00 | 0.00 | 0.00 | 93 | 1010.1 |
| 20260505093043 | 69 | 171 | 3.0 | 10.0 | 0.00 | 0.00 | 0.00 | 92 | 1007.5 |
| 20260505093013 | 69 | 160 | 3.0 | 9.0 | 0.00 | 0.00 | 0.00 | 93 | 1010.0 |
| 20260505091545 | 69 | 174 | 3.0 | 9.0 | 0.00 | 0.00 | 0.00 | 92 | 1007.5 |
| 20260505091510 | 69 | 189 | 2.0 | 8.0 | 0.00 | 0.00 | 0.00 | 93 | 1010.1 |
| 20260505090047 | 69 | 195 | 2.0 | 11.0 | 0.00 | 0.00 | 0.00 | 92 | 1007.6 |
| 20260505090024 | 69 | 171 | 1.0 | 11.0 | 0.00 | 0.00 | 0.00 | 92 | 1010.2 |
| 20260505084608 | 69 | 173 | 4.0 | 11.0 | 0.00 | 0.00 | 0.00 | 92 | 1010.2 |
| 20260505084554 | 69 | 162 | 5.0 | 12.0 | 0.00 | 0.00 | 0.00 | 92 | 1007.7 |
| 20260505083055 | 69 | 157 | 4.0 | 12.0 | 0.00 | 0.00 | 0.00 | 91 | 1007.8 |
| 20260505083006 | 69 | 196 | 4.0 | 11.0 | 0.00 | 0.00 | 0.00 | 92 | 1010.4 |
| 20260505081552 | 69 | 168 | 3.0 | 9.0 | 0.00 | 0.00 | 0.00 | 91 | 1008.2 |
| 20260505081504 | 69 | 212 | 3.0 | 8.0 | 0.00 | 0.00 | 0.00 | 92 | 1010.9 |
| 20260505080051 | 69 | 164 | 2.0 | 10.0 | 0.00 | 0.00 | 0.00 | 91 | 1008.2 |
| 20260505080004 | 69 | 164 | 1.0 | 9.0 | 0.00 | 0.00 | 0.00 | 91 | 1010.9 |
| 20260505074600 | 69 | 164 | 5.0 | 10.0 | 0.00 | 0.00 | 0.00 | 91 | 1011.2 |
| 20260505074544 | 69 | 176 | 5.0 | 11.0 | 0.00 | 0.00 | 0.00 | 91 | 1008.3 |
| 20260505073101 | 69 | 200 | 2.0 | 10.0 | 0.00 | 0.00 | 0.00 | 91 | 1011.4 |
| 20260505073044 | 69 | 201 | 3.0 | 10.0 | 0.00 | 0.00 | 0.00 | 90 | 1008.7 |
| 20260505071555 | 70 | 189 | 2.0 | 9.0 | 0.00 | 0.00 | 0.00 | 91 | 1011.5 |
| 20260505071549 | 70 | 170 | 2.0 | 9.0 | 0.00 | 0.00 | 0.00 | 90 | 1008.7 |
| 20260505070053 | 70 | 186 | 3.0 | 10.0 | 0.00 | 0.00 | 0.00 | 90 | 1011.8 |
| 20260505070046 | 70 | 201 | 3.0 | 11.0 | 0.00 | 0.00 | 0.00 | 90 | 1009.1 |
| 20260505064553 | 70 | 196 | 4.0 | 11.0 | 0.00 | 0.00 | 0.00 | 90 | 1011.8 |
| 20260505064549 | 70 | 145 | 3.0 | 12.0 | 0.00 | 0.00 | 0.00 | 89 | 1009.2 |
| 20260505063048 | 70 | 162 | 4.0 | 13.0 | 0.00 | 0.00 | 0.00 | 89 | 1012.0 |
| 20260505061549 | 70 | 180 | 2.0 | 9.0 | 0.00 | 0.00 | 0.00 | 88 | 1009.5 |
| 20260505060052 | 71 | 192 | 4.0 | 11.0 | 0.00 | 0.00 | 0.00 | 88 | 1009.6 |
| 20260505060048 | 71 | 167 | 3.0 | 10.0 | 0.00 | 0.00 | 0.00 | 89 | 1012.0 |
| 20260505054554 | 71 | 165 | 3.0 | 11.0 | 0.00 | 0.00 | 0.00 | 88 | 1009.7 |
| 20260505054552 | 71 | 115 | 4.0 | 11.0 | 0.00 | 0.00 | 0.00 | 88 | 1012.2 |
| 20260505053046 | 71 | 128 | 3.0 | 11.0 | 0.00 | 0.00 | 0.00 | 87 | 1009.8 |
| 20260505053041 | 71 | 150 | 4.0 | 9.0 | 0.00 | 0.00 | 0.00 | 88 | 1012.2 |
| 20260505051544 | 71 | 152 | 5.0 | 12.0 | 0.00 | 0.00 | 0.00 | 87 | 1009.6 |
| 20260505051539 | 71 | 163 | 6.0 | 14.0 | 0.00 | 0.00 | 0.00 | 87 | 1012.1 |
| 20260505041548 | 73 | 140 | 5.0 | 11.0 | 0.00 | 0.00 | 0.00 | 84 | 1009.6 |
| 20260505041533 | 73 | 120 | 4.0 | 11.0 | 0.00 | 0.00 | 0.00 | 85 | 1012.1 |
| 20260505040044 | 73 | 160 | 3.0 | 9.0 | 0.00 | 0.00 | 0.00 | 83 | 1009.6 |
| 20260505040035 | 73 | 160 | 4.0 | 8.0 | 0.00 | 0.00 | 0.00 | 83 | 1012.1 |
| 20260505034542 | 74 | 188 | 4.0 | 12.0 | 0.00 | 0.00 | 0.00 | 82 | 1009.5 |
| 20260505034532 | 74 | 188 | 4.0 | 11.0 | 0.00 | 0.00 | 0.00 | 82 | 1012.0 |
| 20260505033047 | 74 | 172 | 6.0 | 14.0 | 0.00 | 0.00 | 0.00 | 80 | 1009.3 |
| 20260505033037 | 74 | 172 | 5.0 | 14.0 | 0.00 | 0.00 | 0.00 | 81 | 1011.8 |
| 20260505031554 | 74 | 196 | 4.0 | 11.0 | 0.00 | 0.00 | 0.00 | 79 | 1009.3 |
| 20260505031539 | 74 | 196 | 5.0 | 11.0 | 0.00 | 0.00 | 0.00 | 79 | 1011.8 |
| 20260505030046 | 75 | 148 | 3.0 | 9.0 | 0.00 | 0.00 | 0.00 | 78 | 1009.3 |
| 20260505030030 | 75 | 148 | 4.0 | 10.0 | 0.00 | 0.00 | 0.00 | 78 | 1011.7 |
| 20260505024550 | 75 | 183 | 5.0 | 11.0 | 0.00 | 0.00 | 0.00 | 77 | 1009.4 |
| 20260505024544 | 75 | 183 | 5.0 | 10.0 | 0.00 | 0.00 | 0.00 | 77 | 1011.8 |